This demonstration page uses our WeatherBlox Daily Observations layout. Learn more.

Left ArrowRight Arrow

38.88101, -77.10428

Hourly Observations for September 23, 2021

Temp ( °F °C ) Dew Point ( °F °C ) Humidity (%) Winds ( mph kmh ) Pressure ( in mb ) Visibility ( mi km ) Precip ( " mm )
12:52 am 00:52 Cloudy 76 24.4 70 21.1 82 82 SSE 15 24 29.83 1010 10 16 0.00 0.00
1:52 am 01:52 Cloudy with Light Rain 76 24.4 71 21.7 85 85 SE 17 28 29.80 1009 7 11 0.01 0.25
2:52 am 02:52 Cloudy with Light Rain 75 23.9 71 21.7 88 88 SSE 15 24 29.78 1009 7 11 0.04 1.02
3:24 am 03:24 Cloudy with Strong Thunderstorms 75 23.9 71 21.7 88 88 SSE 13 20 29.77 1008 4 6 0.06 1.52
3:52 am 03:52 Cloudy with Thunderstorms 75 23.9 71 21.7 88 88 SE 10 17 29.75 1007 4 6 0.22 5.59
4:07 am 04:07 Cloudy with Nearby Thunderstorms 76 24.4 71 21.7 85 85 SSE 18 30 29.75 1007 10 16 0.00 0.00
4:14 am 04:14 Cloudy 76 24.4 71 21.7 85 85 SSE 16 26 29.75 1007 10 16 0.00 0.00
4:50 am 04:50 Cloudy 75 24 72 22 89 89 SSE 13 20 29.75 1007 10 16 0.00 0.00
4:52 am 04:52 Cloudy 76 24.4 71 21.7 85 85 SSE 14 22 29.75 1007 10 16 0.00 0.00
5:21 am 05:21 Cloudy 76 24.4 71 21.7 85 85 S 16 26 29.75 1007 10 16 0.00 0.00
5:34 am 05:34 Cloudy with Heavy Rain 75 23.9 71 21.7 88 88 SSE 15 24 29.75 1007 2 3 0.02 0.51
5:38 am 05:38 Cloudy with Rain 75 23.9 71 21.7 88 88 SSE 14 22 29.74 1007 4 6 0.06 1.52
5:52 am 05:52 Cloudy with Light Rain 75 23.9 71 21.7 88 88 SSE 21 33 29.75 1008 4 6 0.07 1.78
6:32 am 06:32 Cloudy with Light Rain 69 20.6 65 18.3 87 87 W 24 39 29.78 1008 5 8 0.09 2.29
6:35 am 06:35 Cloudy with Heavy Rain 66 18.9 62 16.7 87 87 WNW 17 28 29.79 1009 1 2 0.10 2.54
6:37 am 06:37 Cloudy with Heavy Rain 65 18.3 61 16.1 87 87 WNW 18 30 29.77 1008 1 2 0.16 4.06
6:42 am 06:42 Cloudy with Rain 64 17.8 61 16.1 90 90 WNW 15 24 29.78 1008 3 4 0.28 7.11
6:46 am 06:46 Cloudy with Heavy Rain 63 17 61 16 94 94 WNW 16 26 29.79 1009 2 2 0.31 7.87
6:49 am 06:49 Cloudy with Rain 63 17 61 16 94 94 NW 17 28 29.79 1009 2 3 0.35 8.89
6:52 am 06:52 Cloudy with Rain 63 17.2 60 15.6 90 90 NNW 16 26 29.79 1009 3 4 0.36 9.14
7:08 am 07:08 Cloudy with Nearby Thunderstorms 63 17.2 60 15.6 90 90 NW 14 22 29.80 1009 1 2 0.07 1.78
7:29 am 07:29 Cloudy with Rain 62 16.7 59 15 90 90 NNW 12 19 29.81 1009 2 2 0.37 9.40
7:32 am 07:32 Cloudy with Light Rain 62 16.7 59 15 90 90 N 9 15 29.80 1009 3 4 0.37 9.40
7:37 am 07:37 Cloudy with Nearby Thunderstorms 62 16.7 59 15 90 90 NW 13 20 29.81 1009 4 6 0.38 9.65
7:43 am 07:43 Cloudy with Nearby Thunderstorms 63 17.2 59 15 87 87 NNW 7 11 29.82 1010 3 4 0.39 9.91
7:50 am 07:50 Cloudy with Rain 63 17 59 15 88 88 NNW 6 9 29.82 1010 1 2 0.43 10.92
7:52 am 07:52 Cloudy with Rain 63 17.2 59 15 87 87 NNW 8 13 29.81 1009 1 2 0.44 11.18
7:59 am 07:59 Cloudy with Light Rain 63 17.2 59 15 87 87 NW 7 11 29.83 1010 4 6 0.02 0.51
8:03 am 08:03 Cloudy with Heavy Rain 63 17.2 59 15 87 87 NNW 10 17 29.82 1010 1 2 0.03 0.76
8:13 am 08:13 Cloudy with Light Rain 62 16.7 59 15 90 90 NNW 7 11 29.83 1010 3 5 0.12 3.05
8:24 am 08:24 Cloudy with Light Rain 63 17.2 59 15 87 87 NW 5 7 29.84 1010 4 6 0.14 3.56
8:49 am 08:49 Cloudy with Light Rain 63 17 59 15 88 88 NNW 9 15 29.82 1010 9 14 0.16 4.06
8:50 am 08:50 Cloudy with Light Rain 63 17.2 59 15 87 87 NNW 9 15 29.82 1010 10 16 0.16 4.06
8:57 am 08:57 Cloudy with Light Rain 63 17.2 60 15.6 90 90 NW 8 13 29.83 1010 10 16 0.00 0.00
9:12 am 09:12 Cloudy 63 17.2 59 15 87 87 NNW 9 15 29.83 1010 10 16 0.00 0.00
9:52 am 09:52 Cloudy 64 17.8 59 15 84 84 N 7 11 29.83 1010 10 16 0.00 0.00
10:52 am 10:52 Mostly Cloudy 67 19.4 59 15 76 76 NNW 8 13 29.87 1011 10 16 0.00 0.00
11:52 am 11:52 Cloudy 70 21.1 60 15.6 71 71 NNW 10 17 29.87 1011 10 16 0.00 0.00
12:52 pm 12:52 Mostly Cloudy 74 23.3 59 15 60 60 WNW 7 11 29.88 1012 10 16 0.00 0.00
1:52 pm 13:52 Mostly Cloudy 75 23.9 59 15 58 58 SW 5 7 29.87 1012 10 16 0.00 0.00
2:52 pm 14:52 Partly Cloudy 75 23.9 60 15.6 60 60 S 8 13 29.85 1011 10 16 0.00 0.00
3:52 pm 15:52 Cloudy 75 23.9 60 15.6 60 60 Calm 29.85 1011 10 16 0.00 0.00
4:52 pm 16:52 Mostly Cloudy 73 22.8 58 14.4 59 59 NW 12 19 29.87 1011 10 16 0.00 0.00
5:52 pm 17:52 Mostly Cloudy 72 22.2 55 12.8 55 55 NNW 14 22 29.90 1013 10 16 0.00 0.00
6:52 pm 18:52 Mostly Cloudy 69 20.6 52 11.1 55 55 NNW 16 26 29.94 1014 10 16 0.00 0.00
7:52 pm 19:52 Cloudy 67 19.4 51 10.6 57 57 NNW 13 20 29.98 1015 10 16 0.00 0.00
8:52 pm 20:52 Mostly Cloudy 64 17.8 48 8.9 56 56 N 10 17 30.00 1016 10 16 0.00 0.00
9:52 pm 21:52 Mostly Cloudy 63 17.2 46 7.8 54 54 N 8 13 30.01 1016 10 16 0.00 0.00
10:52 pm 22:52 Mostly Cloudy 62 16.7 47 8.3 58 58 N 7 11 30.02 1017 10 16 0.00 0.00
11:52 pm 23:52 Mostly Cloudy 62 16.7 48 8.9 60 60 NNW 5 7 30.02 1017 10 16 0.00 0.00

Powered by AerisWeather